| time (UTC) | temp F | wind direction | speed MPH | gust MPH | rain 1hr in | rain 24hr in | rain mn in | humidity % | barometer mb |
| 20260506212332 | 83 | 271 | 2.0 | 9.0 | 0.00 | 0.00 | 0.00 | 20 | 1012.1 |
| 20260506211341 | 83 | 15 | 4.0 | 9.0 | 0.00 | 0.00 | 0.00 | 19 | 1012.2 |
| 20260506210331 | 83 | 268 | 3.0 | 5.0 | 0.00 | 0.00 | 0.00 | 20 | 1012.4 |
| 20260506205340 | 83 | 154 | 6.0 | 10.0 | 0.00 | 0.00 | 0.00 | 20 | 1012.4 |
| 20260506204328 | 82 | 267 | 3.0 | 9.0 | 0.00 | 0.00 | 0.00 | 20 | 1012.6 |
| 20260506203336 | 82 | 263 | 4.0 | 7.0 | 0.00 | 0.00 | 0.00 | 21 | 1012.7 |
| 20260506202348 | 81 | 317 | 3.0 | 6.0 | 0.00 | 0.00 | 0.00 | 21 | 1012.8 |
| 20260506201334 | 82 | 196 | 3.0 | 7.0 | 0.00 | 0.00 | 0.00 | 21 | 1012.9 |
| 20260506200342 | 81 | 227 | 1.0 | 6.0 | 0.00 | 0.00 | 0.00 | 22 | 1012.9 |
| 20260506195330 | 81 | 161 | 5.0 | 11.0 | 0.00 | 0.00 | 0.00 | 21 | 1013.0 |
| 20260506194343 | 80 | 188 | 3.0 | 9.0 | 0.00 | 0.00 | 0.00 | 22 | 1013.2 |
| 20260506193332 | 80 | 79 | 3.0 | 8.0 | 0.00 | 0.00 | 0.00 | 22 | 1013.3 |
| 20260506192339 | 80 | 335 | 5.0 | 11.0 | 0.00 | 0.00 | 0.00 | 22 | 1013.4 |
| 20260506191327 | 80 | 348 | 1.0 | 9.0 | 0.00 | 0.00 | 0.00 | 23 | 1013.3 |
| 20260506190339 | 80 | 186 | 4.0 | 10.0 | 0.00 | 0.00 | 0.00 | 23 | 1013.5 |
| 20260506185406 | 80 | 277 | 2.0 | 6.0 | 0.00 | 0.00 | 0.00 | 23 | 1013.7 |
| 20260506184334 | 79 | 208 | 0.0 | 4.0 | 0.00 | 0.00 | 0.00 | 23 | 1013.8 |
| 20260506183342 | 79 | 293 | 1.0 | 9.0 | 0.00 | 0.00 | 0.00 | 23 | 1014.1 |
| 20260506182333 | 78 | 350 | 1.0 | 6.0 | 0.00 | 0.00 | 0.00 | 26 | 1014.1 |
| 20260506181401 | 77 | 248 | 1.0 | 8.0 | 0.00 | 0.00 | 0.00 | 25 | 1014.3 |
| 20260506180328 | 77 | 22 | 3.0 | 7.0 | 0.00 | 0.00 | 0.00 | 26 | 1014.3 |
| 20260506175336 | 77 | 235 | 1.0 | 7.0 | 0.00 | 0.00 | 0.00 | 26 | 1014.3 |
| 20260506174348 | 76 | 328 | 1.0 | 5.0 | 0.00 | 0.00 | 0.00 | 27 | 1014.4 |
| 20260506173335 | 75 | 327 | 3.0 | 6.0 | 0.00 | 0.00 | 0.00 | 28 | 1014.4 |
| 20260506172342 | 76 | 252 | 5.0 | 9.0 | 0.00 | 0.00 | 0.00 | 28 | 1014.4 |
| 20260506171330 | 75 | 307 | 0.0 | 3.0 | 0.00 | 0.00 | 0.00 | 28 | 1014.4 |
| 20260506170358 | 75 | 319 | 1.0 | 7.0 | 0.00 | 0.00 | 0.00 | 29 | 1014.4 |
| 20260506165328 | 74 | 271 | 1.0 | 6.0 | 0.00 | 0.00 | 0.00 | 29 | 1014.3 |
| 20260506164335 | 74 | 105 | 1.0 | 6.0 | 0.00 | 0.00 | 0.00 | 29 | 1014.3 |
| 20260506163342 | 74 | 279 | 1.0 | 7.0 | 0.00 | 0.00 | 0.00 | 30 | 1014.3 |
| 20260506162330 | 74 | 148 | 3.0 | 6.0 | 0.00 | 0.00 | 0.00 | 30 | 1014.2 |
| 20260506161343 | 74 | 202 | 2.0 | 6.0 | 0.00 | 0.00 | 0.00 | 30 | 1014.2 |
| 20260506160331 | 74 | 253 | 2.0 | 5.0 | 0.00 | 0.00 | 0.00 | 30 | 1014.2 |
| 20260506155340 | 73 | 302 | 2.0 | 4.0 | 0.00 | 0.00 | 0.00 | 31 | 1014.2 |
| 20260506154331 | 72 | 323 | 0.0 | 3.0 | 0.00 | 0.00 | 0.00 | 32 | 1014.2 |
| 20260506153340 | 72 | 32 | 1.0 | 5.0 | 0.00 | 0.00 | 0.00 | 32 | 1014.2 |
| 20260506152329 | 71 | 23 | 1.0 | 5.0 | 0.00 | 0.00 | 0.00 | 32 | 1014.2 |
| 20260506151336 | 71 | 345 | 0.0 | 5.0 | 0.00 | 0.00 | 0.00 | 34 | 1014.2 |
| 20260506150403 | 70 | 326 | 1.0 | 3.0 | 0.00 | 0.00 | 0.00 | 35 | 1014.3 |
| 20260506145333 | 69 | 337 | 1.0 | 2.0 | 0.00 | 0.00 | 0.00 | 35 | 1014.3 |
| 20260506144342 | 69 | 303 | 0.0 | 4.0 | 0.00 | 0.00 | 0.00 | 36 | 1014.2 |
| 20260506143328 | 68 | 355 | 0.0 | 0.0 | 0.00 | 0.00 | 0.00 | 37 | 1014.2 |
| 20260506142336 | 67 | 63 | 0.0 | 0.0 | 0.00 | 0.00 | 0.00 | 40 | 1014.0 |
| 20260506141328 | 66 | 67 | 0.0 | 0.0 | 0.00 | 0.00 | 0.00 | 42 | 1013.9 |
| 20260506140336 | 65 | 79 | 0.0 | 2.0 | 0.00 | 0.00 | 0.00 | 45 | 1013.8 |
| 20260506135343 | 63 | 102 | 0.0 | 0.0 | 0.00 | 0.00 | 0.00 | 48 | 1013.5 |
| 20260506134336 | 62 | 149 | 0.0 | 0.0 | 0.00 | 0.00 | 0.00 | 50 | 1013.4 |
| 20260506133403 | 60 | 148 | 0.0 | 0.0 | 0.00 | 0.00 | 0.00 | 53 | 1013.3 |
| 20260506132350 | 58 | 170 | 0.0 | 0.0 | 0.00 | 0.00 | 0.00 | 57 | 1013.3 |
| 20260506131337 | 57 | 170 | 0.0 | 0.0 | 0.00 | 0.00 | 0.00 | 56 | 1013.2 |
| 20260506130345 | 57 | 170 | 0.0 | 0.0 | 0.00 | 0.00 | 0.00 | 55 | 1013.0 |
| 20260506125337 | 57 | 246 | 0.0 | 0.0 | 0.00 | 0.00 | 0.00 | 55 | 1013.0 |
| 20260506124327 | 57 | 246 | 0.0 | 0.0 | 0.00 | 0.00 | 0.00 | 56 | 1012.9 |
| 20260506123336 | 57 | 246 | 0.0 | 1.0 | 0.00 | 0.00 | 0.00 | 57 | 1012.8 |
| 20260506122328 | 57 | 246 | 0.0 | 0.0 | 0.00 | 0.00 | 0.00 | 55 | 1012.6 |
| 20260506121335 | 57 | 246 | 0.0 | 0.0 | 0.00 | 0.00 | 0.00 | 55 | 1012.5 |
| 20260506120345 | 58 | 246 | 0.0 | 0.0 | 0.00 | 0.00 | 0.00 | 54 | 1012.5 |
| 20260506115332 | 58 | 246 | 0.0 | 0.0 | 0.00 | 0.00 | 0.00 | 53 | 1012.5 |
| 20260506114343 | 58 | 246 | 0.0 | 0.0 | 0.00 | 0.00 | 0.00 | 53 | 1012.5 |
| 20260506113330 | 58 | 246 | 0.0 | 0.0 | 0.00 | 0.00 | 0.00 | 52 | 1012.5 |
| 20260506112339 | 58 | 246 | 0.0 | 0.0 | 0.00 | 0.00 | 0.00 | 52 | 1012.4 |
| 20260506111345 | 59 | 246 | 0.0 | 0.0 | 0.00 | 0.00 | 0.00 | 52 | 1012.4 |
| 20260506110338 | 59 | 246 | 0.0 | 0.0 | 0.00 | 0.00 | 0.00 | 52 | 1012.3 |
| 20260506105326 | 59 | 246 | 0.0 | 0.0 | 0.00 | 0.00 | 0.00 | 51 | 1012.3 |
| 20260506104334 | 59 | 246 | 0.0 | 0.0 | 0.00 | 0.00 | 0.00 | 50 | 1012.2 |
| 20260506103342 | 60 | 246 | 0.0 | 0.0 | 0.00 | 0.00 | 0.00 | 49 | 1012.2 |
| 20260506102334 | 60 | 246 | 0.0 | 0.0 | 0.00 | 0.00 | 0.00 | 49 | 1012.1 |
| 20260506101341 | 61 | 246 | 0.0 | 0.0 | 0.00 | 0.00 | 0.00 | 47 | 1011.9 |
| 20260506100330 | 61 | 246 | 0.0 | 0.0 | 0.00 | 0.00 | 0.00 | 46 | 1011.9 |
| 20260506095339 | 61 | 246 | 0.0 | 0.0 | 0.00 | 0.00 | 0.00 | 46 | 1011.9 |
| 20260506094330 | 62 | 246 | 0.0 | 0.0 | 0.00 | 0.00 | 0.00 | 45 | 1011.8 |
| 20260506093338 | 62 | 230 | 0.0 | 0.0 | 0.00 | 0.00 | 0.00 | 43 | 1011.7 |
| 20260506092345 | 63 | 230 | 0.0 | 0.0 | 0.00 | 0.00 | 0.00 | 42 | 1011.7 |
| 20260506091352 | 63 | 230 | 0.0 | 0.0 | 0.00 | 0.00 | 0.00 | 42 | 1011.7 |
| 20260506090342 | 64 | 230 | 0.0 | 0.0 | 0.00 | 0.00 | 0.00 | 41 | 1011.6 |
| 20260506085330 | 64 | 230 | 0.0 | 0.0 | 0.00 | 0.00 | 0.00 | 40 | 1011.5 |
| 20260506084336 | 65 | 242 | 0.0 | 0.0 | 0.00 | 0.00 | 0.00 | 39 | 1011.4 |
| 20260506083404 | 65 | 338 | 0.0 | 1.0 | 0.00 | 0.00 | 0.00 | 39 | 1011.6 |
| 20260506082332 | 66 | 256 | 0.0 | 0.0 | 0.00 | 0.00 | 0.00 | 37 | 1011.4 |
| 20260506081343 | 66 | 256 | 0.0 | 4.0 | 0.00 | 0.00 | 0.00 | 37 | 1011.4 |
| 20260506080331 | 67 | 229 | 0.0 | 6.0 | 0.00 | 0.00 | 0.00 | 36 | 1011.4 |
| 20260506073338 | 67 | 254 | 1.0 | 3.0 | 0.00 | 0.00 | 0.00 | 35 | 1011.4 |
| 20260506072325 | 67 | 273 | 2.0 | 7.0 | 0.00 | 0.00 | 0.00 | 35 | 1011.4 |
| 20260506071334 | 68 | 270 | 2.0 | 6.0 | 0.00 | 0.00 | 0.00 | 34 | 1011.3 |
| 20260506070340 | 68 | 266 | 4.0 | 10.0 | 0.00 | 0.00 | 0.00 | 34 | 1011.2 |
| 20260506062334 | 69 | 283 | 2.0 | 7.0 | 0.00 | 0.00 | 0.00 | 33 | 1011.0 |
| 20260506061325 | 69 | 263 | 4.0 | 7.0 | 0.00 | 0.00 | 0.00 | 32 | 1011.0 |
| 20260506060333 | 69 | 273 | 1.0 | 4.0 | 0.00 | 0.00 | 0.00 | 32 | 1010.9 |
| 20260506051336 | 70 | 283 | 1.0 | 10.0 | 0.00 | 0.00 | 0.00 | 31 | 1010.7 |
| 20260506050327 | 70 | 279 | 2.0 | 9.0 | 0.00 | 0.00 | 0.00 | 31 | 1010.5 |
| 20260506044403 | 70 | 317 | 2.0 | 7.0 | 0.00 | 0.00 | 0.00 | 30 | 1010.4 |
| 20260506043330 | 70 | 265 | 4.0 | 8.0 | 0.00 | 0.00 | 0.00 | 30 | 1010.3 |
| 20260506042338 | 71 | 196 | 3.0 | 8.0 | 0.00 | 0.00 | 0.00 | 30 | 1010.3 |
| 20260506041330 | 71 | 270 | 1.0 | 9.0 | 0.00 | 0.00 | 0.00 | 29 | 1010.1 |
| 20260506040338 | 71 | 233 | 5.0 | 10.0 | 0.00 | 0.00 | 0.00 | 29 | 1010.0 |
| 20260506035327 | 71 | 226 | 0.0 | 4.0 | 0.00 | 0.00 | 0.00 | 28 | 1009.9 |
| 20260506034340 | 72 | 228 | 1.0 | 6.0 | 0.00 | 0.00 | 0.00 | 28 | 1009.8 |
| 20260506033329 | 72 | 269 | 1.0 | 11.0 | 0.00 | 0.00 | 0.00 | 27 | 1009.6 |
| 20260506032355 | 72 | 256 | 7.0 | 13.0 | 0.00 | 0.00 | 0.00 | 27 | 1009.5 |
| 20260506031343 | 72 | 257 | 4.0 | 10.0 | 0.00 | 0.00 | 0.00 | 27 | 1009.3 |
| 20260506030335 | 72 | 270 | 4.0 | 9.0 | 0.00 | 0.00 | 0.00 | 27 | 1009.2 |
| 20260506025344 | 73 | 280 | 3.0 | 12.0 | 0.00 | 0.00 | 0.00 | 26 | 1009.0 |
| 20260506024331 | 73 | 285 | 1.0 | 10.0 | 0.00 | 0.00 | 0.00 | 27 | 1009.0 |
| 20260506023338 | 73 | 268 | 2.0 | 11.0 | 0.00 | 0.00 | 0.00 | 26 | 1008.7 |
| 20260506022330 | 73 | 234 | 4.0 | 12.0 | 0.00 | 0.00 | 0.00 | 26 | 1008.7 |
| 20260506021337 | 74 | 232 | 4.0 | 13.0 | 0.00 | 0.00 | 0.00 | 25 | 1008.5 |
| 20260506020345 | 74 | 240 | 4.0 | 10.0 | 0.00 | 0.00 | 0.00 | 24 | 1008.4 |
| 20260506015333 | 75 | 295 | 2.0 | 10.0 | 0.00 | 0.00 | 0.00 | 24 | 1008.3 |
| 20260506014344 | 75 | 252 | 7.0 | 12.0 | 0.00 | 0.00 | 0.00 | 24 | 1008.1 |
| 20260506013331 | 76 | 248 | 0.0 | 9.0 | 0.00 | 0.00 | 0.00 | 25 | 1008.1 |
| 20260506012339 | 76 | 258 | 0.0 | 11.0 | 0.00 | 0.00 | 0.00 | 25 | 1008.0 |
| 20260506011347 | 76 | 182 | 3.0 | 11.0 | 0.00 | 0.00 | 0.00 | 25 | 1007.9 |
| 20260506010358 | 76 | 223 | 2.0 | 11.0 | 0.00 | 0.00 | 0.00 | 25 | 1007.9 |
| 20260506005405 | 76 | 300 | 3.0 | 15.0 | 0.00 | 0.00 | 0.00 | 25 | 1007.9 |
| 20260506004353 | 76 | 274 | 5.0 | 15.0 | 0.00 | 0.00 | 0.00 | 25 | 1007.8 |
| 20260506003340 | 76 | 263 | 7.0 | 14.0 | 0.00 | 0.00 | 0.00 | 25 | 1007.7 |
| 20260506002331 | 77 | 168 | 6.0 | 15.0 | 0.00 | 0.00 | 0.00 | 24 | 1007.6 |
| 20260506001338 | 77 | 181 | 4.0 | 12.0 | 0.00 | 0.00 | 0.00 | 24 | 1007.5 |
| 20260506000346 | 77 | 263 | 7.0 | 16.0 | 0.00 | 0.00 | 0.00 | 24 | 1007.5 |
| 20260505235333 | 77 | 240 | 2.0 | 14.0 | 0.00 | 0.00 | 0.00 | 25 | 1007.5 |
| 20260505234341 | 77 | 333 | 2.0 | 11.0 | 0.00 | 0.00 | 0.00 | 25 | 1007.4 |
| 20260505233332 | 77 | 302 | 3.0 | 16.0 | 0.00 | 0.00 | 0.00 | 26 | 1007.4 |
| 20260505232340 | 78 | 298 | 5.0 | 11.0 | 0.00 | 0.00 | 0.00 | 25 | 1007.5 |
| 20260505231328 | 76 | 222 | 4.0 | 10.0 | 0.00 | 0.00 | 0.00 | 27 | 1007.5 |
| 20260505230335 | 76 | 263 | 8.0 | 16.0 | 0.00 | 0.00 | 0.00 | 25 | 1007.6 |
| 20260505225407 | 76 | 257 | 2.0 | 13.0 | 0.00 | 0.00 | 0.00 | 27 | 1007.6 |
| 20260505224334 | 76 | 321 | 4.0 | 12.0 | 0.00 | 0.00 | 0.00 | 27 | 1007.8 |
| 20260505223403 | 78 | 315 | 4.0 | 16.0 | 0.00 | 0.00 | 0.00 | 26 | 1007.9 |
| 20260505222329 | 77 | 262 | 6.0 | 13.0 | 0.00 | 0.00 | 0.00 | 26 | 1008.0 |
| 20260505221401 | 78 | 270 | 6.0 | 15.0 | 0.00 | 0.00 | 0.00 | 26 | 1008.1 |
| 20260505220407 | 77 | 207 | 4.0 | 17.0 | 0.00 | 0.00 | 0.00 | 26 | 1008.3 |
| 20260505215334 | 79 | 256 | 3.0 | 16.0 | 0.00 | 0.00 | 0.00 | 25 | 1008.2 |
| 20260505214342 | 78 | 234 | 6.0 | 12.0 | 0.00 | 0.00 | 0.00 | 26 | 1008.2 |
| 20260505213332 | 78 | 259 | 6.0 | 13.0 | 0.00 | 0.00 | 0.00 | 26 | 1008.3 |